Terminal Aerodrome Forecast
Issued by NWS

Home | Current Version | Previous Version | Text Only | Print | Product List | Glossary Off
Versions: 1 2 3 4 5 6 7 8 9 10 11 12 13 14 15 16 17 18 19 20 21 22

000
FTUS42 KMHX 010137 AAA
TAFOAJ
TAF AMD
KOAJ 010137Z 0102/0124 VRB03KT P6SM VCSH BKN020
      TEMPO 0102/0103 4SM -TSRA BKN015CB
     FM010700 VRB02KT 4SM BR VCSH OVC007
     FM011300 35005KT 5SM -RA SCT007 OVC015
     FM011700 35013G20KT P6SM VCSH OVC020
      AMD LTD TO CLD VIS AND WIND=

USA.gov is the U.S. government's official web portal to all federal, state and local government web resources and services.